Puerto Barrios, Guatemala

2:02 AM CST on February 18, 2018 (GMT -0600)
Puerto Barrios

Weather History for MGPB - February, 2013

Change the Weather History Date:

Tuesday, February 12, 2013

  Actual Average Record
Temperature  
Mean Temperature 78 °F -  
Max Temperature 86 °F 82 °F 86 °F (2004)
Min Temperature 71 °F 67 °F 63 °F (2015)
Cooling Degree Days 14    
Growing Degree Days 28 (Base 50)    
Moisture  
Dew Point 74 °F    
Average Humidity 88    
Maximum Humidity 100    
Minimum Humidity 73    
Precipitation  
Precipitation 0.00 in - - ()
Sea Level Pressure  
Sea Level Pressure 29.92 in    
Wind  
Wind Speed 2 mph ()    
Max Wind Speed 12 mph    
Max Gust Speed -    
Visibility 6.2 miles    
Events      
Averages and records for this station are not official NWS values.
T = Trace of Precipitation, MM = Missing Value Source: Averaged Metar Reports

Daily Weather History Graph

Daily Weather History Graph

Search for Another Location

Airport or City:

Trip Planner

Search our weather history database for the weather conditions in past years. The results will help you decide how hot, cold, wet, or windy it might be!

Date:

Astronomy

Feb. 12, 2013 Rise Set
Actual Time 6:20 AM CST 5:56 PM CST
Civil Twilight 5:58 AM CST 6:18 PM CST
Nautical Twilight 5:33 AM CST 6:44 PM CST
Astronomical Twilight 5:07 AM CST 7:09 PM CST
Moon 7:50 AM CST (2/12) 8:19 PM CST (2/12)
Length of Visible Light 12h 20m
Length of Day
11h 36m
Waxing Crescent, 7% of the Moon is Illuminated
Feb 12
Waxing Crescent
Feb 17
First Quarter
Feb 25
Full
Mar 4
Last Quarter
Mar 11
New

Hourly Weather History & Observations

Time (CST) Temp. Heat Index Dew Point Humidity Pressure Visibility Wind Dir Wind Speed Gust Speed Precip Events Conditions
12:00 AM 73.4 °F - 71.6 °F 94% 29.98 in - Calm Calm - N/A   Clear
1:00 AM 73.4 °F - 71.6 °F 94% 29.95 in - Calm Calm - N/A   Clear
2:00 AM 71.6 °F - 71.6 °F 100% 29.95 in - Calm Calm - N/A   Clear
3:00 AM 71.6 °F - 71.6 °F 100% 29.92 in - Calm Calm - N/A   Clear
4:00 AM 71.6 °F - 69.8 °F 94% 29.92 in - Calm Calm - N/A   Clear
5:00 AM 71.6 °F - 69.8 °F 94% 29.92 in - North - - N/A   Partly Cloudy
6:00 AM 73 °F - 72 °F 94% 29.93 in 25 mi Calm Calm - -   Partly Cloudy
6:00 AM 73.4 °F - 71.6 °F 94% 29.92 in 6.2 mi Calm Calm - N/A   Scattered Clouds
7:00 AM 73.4 °F - 71.6 °F 94% 29.95 in 6.2 mi Calm Calm - N/A   Partly Cloudy
8:00 AM 75.2 °F - 73.4 °F 94% 29.95 in - Calm Calm - N/A   Clear
9:00 AM 80.6 °F 87.1 °F 77.0 °F 89% 29.98 in - Calm Calm - N/A   Clear
10:00 AM 82.4 °F 92.4 °F 78.8 °F 89% 29.98 in 6.2 mi North 4.6 mph - N/A   Partly Cloudy
11:00 AM 84.2 °F 94.1 °F 77.0 °F 79% 29.98 in 6.2 mi North 6.9 mph - N/A   Partly Cloudy
12:00 PM 85 °F - 78 °F 73% 29.96 in 25 mi North 9.2 mph - -   Scattered Clouds
12:00 PM 84.2 °F 94.1 °F 77.0 °F 79% 29.95 in 6.2 mi North 9.2 mph - N/A   Partly Cloudy
1:00 PM 86.0 °F 96.9 °F 77.0 °F 74% 29.92 in 6.2 mi North 9.2 mph - N/A   Partly Cloudy
2:00 PM 86.0 °F 96.9 °F 77.0 °F 74% 29.89 in 6.2 mi North 11.5 mph - N/A   Partly Cloudy
3:00 PM 86.0 °F 96.9 °F 77.0 °F 74% 29.86 in - North 6.9 mph - N/A   Clear
4:00 PM 84.2 °F 92.3 °F 75.2 °F 74% 29.86 in - East 6.9 mph - N/A   Clear
5:00 PM 82.4 °F 89.5 °F 75.2 °F 79% 29.86 in - East 6.9 mph - N/A   Clear
6:00 PM 78.8 °F - 73.4 °F 83% 29.86 in - Calm Calm - N/A   Clear
7:00 PM 77.0 °F - 73.4 °F 89% 29.86 in - Calm Calm - N/A   Clear
8:00 PM 73.4 °F - 71.6 °F 94% 29.89 in - Calm Calm - N/A   Clear
9:00 PM 73.4 °F - 71.6 °F 94% 29.89 in - Calm Calm - N/A   Clear
10:00 PM 71.6 °F - 71.6 °F 100% 29.89 in 6.2 mi Calm Calm - N/A   Partly Cloudy
11:00 PM 71.6 °F - 69.8 °F 94% 29.89 in 6.2 mi Calm Calm - N/A   Partly Cloudy